Time,TemperatureF,DewpointF,PressureIn,WindDirection,WindDirectionDegrees,WindSpeedMPH,WindSpeedGustMPH,Humidity,HourlyPrecipIn,Conditions,Clouds,dailyrainin,SoftwareType,DateUTC
2013-02-27 00:22:00,49.0,42.0,30.19,SW,230,6.0,-999.0,78,-99.99,,,-99.99,,2013-02-27 08:22:00,
2013-02-27 00:32:00,49.0,42.0,30.19,SW,230,6.0,-999.0,78,-99.99,,,-99.99,,2013-02-27 08:32:00,
2013-02-27 00:42:00,49.0,42.0,30.19,SW,230,6.0,-999.0,78,-99.99,,,-99.99,,2013-02-27 08:42:00,
2013-02-27 00:52:00,49.0,42.0,30.19,SW,230,6.0,-999.0,78,-99.99,,,-99.99,,2013-02-27 08:52:00,
2013-02-27 01:01:00,49.0,42.0,30.19,SW,230,6.0,-999.0,78,-99.99,,,-99.99,,2013-02-27 09:01:00,
2013-02-27 02:22:00,48.0,40.0,30.21,WSW,244,3.0,-999.0,75,-99.99,,,-99.99,,2013-02-27 10:22:00,
2013-02-27 02:32:00,48.0,40.0,30.21,WSW,244,3.0,-999.0,75,-99.99,,,-99.99,,2013-02-27 10:32:00,
2013-02-27 02:42:00,48.0,40.0,30.21,WSW,244,3.0,-999.0,75,-99.99,,,-99.99,,2013-02-27 10:42:00,
2013-02-27 02:52:00,48.0,40.0,30.21,WSW,244,3.0,-999.0,75,-99.99,,,-99.99,,2013-02-27 10:52:00,
2013-02-27 04:22:00,46.0,41.0,30.21,WSW,251,0.0,-999.0,84,-99.99,,,-99.99,,2013-02-27 12:22:00,
2013-02-27 04:33:00,46.0,41.0,30.21,WSW,251,0.0,-999.0,84,-99.99,,,-99.99,,2013-02-27 12:33:00,
2013-02-27 04:42:00,46.0,41.0,30.21,WSW,251,0.0,-999.0,84,-99.99,,,-99.99,,2013-02-27 12:42:00,
2013-02-27 04:52:00,46.0,41.0,30.21,WSW,251,0.0,-999.0,84,-99.99,,,-99.99,,2013-02-27 12:52:00,
2013-02-27 05:01:00,46.0,41.0,30.21,WSW,251,0.0,-999.0,84,-99.99,,,-99.99,,2013-02-27 13:01:00,
2013-02-27 06:22:00,46.0,41.0,30.23,WSW,238,1.0,-999.0,84,-99.99,,,-99.99,,2013-02-27 14:22:00,
2013-02-27 06:32:00,46.0,41.0,30.23,WSW,238,1.0,-999.0,84,-99.99,,,-99.99,,2013-02-27 14:32:00,
2013-02-27 06:42:00,46.0,41.0,30.23,WSW,238,1.0,-999.0,84,-99.99,,,-99.99,,2013-02-27 14:42:00,
2013-02-27 06:52:00,46.0,41.0,30.23,WSW,238,1.0,-999.0,84,-99.99,,,-99.99,,2013-02-27 14:52:00,
2013-02-27 07:01:00,46.0,41.0,30.23,WSW,238,1.0,-999.0,84,-99.99,,,-99.99,,2013-02-27 15:01:00,
2013-02-27 08:22:00,49.0,44.0,30.28,NW,311,1.0,-999.0,84,-99.99,,,-99.99,,2013-02-27 16:22:00,
2013-02-27 08:32:00,49.0,44.0,30.28,NW,311,1.0,-999.0,84,-99.99,,,-99.99,,2013-02-27 16:32:00,
2013-02-27 08:42:00,49.0,44.0,30.28,NW,311,1.0,-999.0,84,-99.99,,,-99.99,,2013-02-27 16:42:00,
2013-02-27 08:52:00,49.0,44.0,30.28,NW,311,1.0,-999.0,84,-99.99,,,-99.99,,2013-02-27 16:52:00,
2013-02-27 09:01:00,49.0,44.0,30.28,NW,311,1.0,-999.0,84,-99.99,,,-99.99,,2013-02-27 17:01:00,
2013-02-27 10:22:00,56.0,48.0,30.30,South,172,1.0,-999.0,74,-99.99,,,-99.99,,2013-02-27 18:22:00,
2013-02-27 10:32:00,56.0,48.0,30.30,South,172,1.0,-999.0,74,-99.99,,,-99.99,,2013-02-27 18:32:00,
2013-02-27 10:42:00,56.0,48.0,30.30,South,172,1.0,-999.0,74,-99.99,,,-99.99,,2013-02-27 18:42:00,
2013-02-27 10:52:00,56.0,48.0,30.30,South,172,1.0,-999.0,74,-99.99,,,-99.99,,2013-02-27 18:52:00,
2013-02-27 11:01:00,56.0,48.0,30.30,South,172,1.0,-999.0,74,-99.99,,,-99.99,,2013-02-27 19:01:00,
2013-02-27 12:22:00,60.0,49.0,30.29,SW,224,3.0,-999.0,68,-99.99,,,-99.99,,2013-02-27 20:22:00,
2013-02-27 12:32:00,60.0,49.0,30.29,SW,224,3.0,-999.0,68,-99.99,,,-99.99,,2013-02-27 20:32:00,
2013-02-27 12:42:00,60.0,49.0,30.29,SW,224,3.0,-999.0,68,-99.99,,,-99.99,,2013-02-27 20:42:00,
2013-02-27 12:52:00,60.0,49.0,30.29,SW,224,3.0,-999.0,68,-99.99,,,-99.99,,2013-02-27 20:52:00,
2013-02-27 13:01:00,60.0,49.0,30.29,SW,224,3.0,-999.0,68,-99.99,,,-99.99,,2013-02-27 21:01:00,
2013-02-27 14:22:00,60.0,48.0,30.26,SSW,208,6.0,-999.0,64,-99.99,,,-99.99,,2013-02-27 22:22:00,
2013-02-27 14:32:00,60.0,48.0,30.26,SSW,208,6.0,-999.0,64,-99.99,,,-99.99,,2013-02-27 22:32:00,
2013-02-27 14:42:00,60.0,48.0,30.26,SSW,208,6.0,-999.0,64,-99.99,,,-99.99,,2013-02-27 22:42:00,
2013-02-27 14:52:00,60.0,48.0,30.26,SSW,208,6.0,-999.0,64,-99.99,,,-99.99,,2013-02-27 22:52:00,
2013-02-27 15:01:00,60.0,48.0,30.26,SSW,208,6.0,-999.0,64,-99.99,,,-99.99,,2013-02-27 23:01:00,
2013-02-27 16:22:00,58.0,41.0,30.27,West,263,12.0,-999.0,54,-99.99,,,-99.99,,2013-02-28 00:22:00,
2013-02-27 16:32:00,58.0,41.0,30.27,West,263,12.0,-999.0,54,-99.99,,,-99.99,,2013-02-28 00:32:00,
2013-02-27 16:42:00,58.0,41.0,30.27,West,263,12.0,-999.0,54,-99.99,,,-99.99,,2013-02-28 00:42:00,
2013-02-27 16:52:00,58.0,41.0,30.27,West,263,12.0,-999.0,54,-99.99,,,-99.99,,2013-02-28 00:52:00,
2013-02-27 17:01:00,58.0,41.0,30.27,West,263,12.0,-999.0,54,-99.99,,,-99.99,,2013-02-28 01:01:00,
2013-02-27 18:22:00,50.0,42.0,30.28,West,273,12.0,-999.0,75,-99.99,,,-99.99,,2013-02-28 02:22:00,
2013-02-27 18:32:00,50.0,42.0,30.28,West,273,12.0,-999.0,75,-99.99,,,-99.99,,2013-02-28 02:32:00,
2013-02-27 18:42:00,50.0,42.0,30.28,West,273,12.0,-999.0,75,-99.99,,,-99.99,,2013-02-28 02:42:00,
2013-02-27 18:52:00,50.0,42.0,30.28,West,273,12.0,-999.0,75,-99.99,,,-99.99,,2013-02-28 02:52:00,
2013-02-27 19:01:00,50.0,42.0,30.28,West,273,12.0,-999.0,75,-99.99,,,-99.99,,2013-02-28 03:01:00,
2013-02-27 20:22:00,49.0,46.0,30.32,WSW,237,13.0,-999.0,91,-99.99,,,-99.99,,2013-02-28 04:22:00,
2013-02-27 20:32:00,49.0,46.0,30.32,WSW,237,13.0,-999.0,91,-99.99,,,-99.99,,2013-02-28 04:32:00,
2013-02-27 20:42:00,49.0,46.0,30.32,WSW,237,13.0,-999.0,91,-99.99,,,-99.99,,2013-02-28 04:42:00,
2013-02-27 20:52:00,49.0,46.0,30.32,WSW,237,13.0,-999.0,91,-99.99,,,-99.99,,2013-02-28 04:52:00,
2013-02-27 21:01:00,49.0,46.0,30.32,WSW,237,13.0,-999.0,91,-99.99,,,-99.99,,2013-02-28 05:01:00,
2013-02-27 22:22:00,49.0,46.0,30.34,WSW,242,13.0,-999.0,91,-99.99,,,-99.99,,2013-02-28 06:22:00,
2013-02-27 22:32:00,49.0,46.0,30.34,WSW,242,13.0,-999.0,91,-99.99,,,-99.99,,2013-02-28 06:32:00,
2013-02-27 22:42:00,49.0,46.0,30.34,WSW,242,13.0,-999.0,91,-99.99,,,-99.99,,2013-02-28 06:42:00,
2013-02-27 22:52:00,49.0,46.0,30.34,WSW,242,13.0,-999.0,91,-99.99,,,-99.99,,2013-02-28 06:52:00,
2013-02-27 23:01:00,49.0,46.0,30.34,WSW,242,13.0,-999.0,91,-99.99,,,-99.99,,2013-02-28 07:01:00,